User: anonymous   Login
Location: Bagnara
(41.0500°N, 14.7833°E)
Time: 16:51:29
(UTC+00:00)
Language:

Cosmos 1328 Rocket - Orbit

View from above orbital plane
View from above orbital plane
View from above satellite
View from above satellite

Ground track
Ground track

The orbit data is extracted from the following two-line orbital elements,

1 12988U 81117B   21262.88620603  .00000082  00000-0  67305-5 0  9998
2 12988  82.5239  53.9256 0019546 106.1630   6.6636 14.84827792150657
Epoch (UTC): 19 September 2021 21:16:08
Eccentricity: 0.0019546
inclination: 82.5239°
perigee height: 600 km
apogee height: 628 km
right ascension of ascending node: 53.9256°
argument of perigee: 106.1630°
revolutions per day: 14.84827792
mean anomaly at epoch: 6.6636°
orbit number at epoch: 15065

The dashed part of the orbit path shows where the satellite is in the earth's shadow,  

DLR